TimePDT,TemperatureF,Dew PointF,Humidity,Sea Level PressureIn,VisibilityMPH,Wind Direction,Wind SpeedMPH,Gust SpeedMPH,PrecipitationIn,Events,Conditions,WindDirDegrees,DateUTC
12:56 AM,48.0,37.9,68,30.05,10.0,Calm,Calm,-,N/A,,Clear,0,2013-10-19 07:56:00
1:56 AM,46.9,37.0,68,30.05,10.0,Calm,Calm,-,N/A,,Clear,0,2013-10-19 08:56:00
2:56 AM,48.0,36.0,63,30.05,10.0,Calm,Calm,-,N/A,,Clear,0,2013-10-19 09:56:00
3:56 AM,46.0,37.0,71,30.06,10.0,Calm,Calm,-,N/A,,Clear,0,2013-10-19 10:56:00
4:56 AM,42.1,36.0,79,30.06,10.0,Calm,Calm,-,N/A,,Clear,0,2013-10-19 11:56:00
5:56 AM,45.0,36.0,71,30.07,10.0,Calm,Calm,-,N/A,,Clear,0,2013-10-19 12:56:00
6:56 AM,39.9,35.1,83,30.08,10.0,Calm,Calm,-,N/A,,Clear,0,2013-10-19 13:56:00
7:56 AM,41.0,35.1,79,30.09,10.0,Calm,Calm,-,N/A,,Clear,0,2013-10-19 14:56:00
8:56 AM,48.0,37.0,66,30.11,10.0,Calm,Calm,-,N/A,,Clear,0,2013-10-19 15:56:00
9:56 AM,57.0,37.9,49,30.10,10.0,Calm,Calm,-,N/A,,Clear,0,2013-10-19 16:56:00
10:56 AM,64.0,37.9,38,30.09,10.0,Calm,Calm,-,N/A,,Clear,0,2013-10-19 17:56:00
11:56 AM,72.0,37.0,28,30.07,10.0,Calm,Calm,-,N/A,,Clear,0,2013-10-19 18:56:00
12:56 PM,78.1,37.0,23,30.05,10.0,Calm,Calm,-,N/A,,Clear,0,2013-10-19 19:56:00
1:56 PM,82.0,37.0,20,30.01,10.0,Calm,Calm,-,N/A,,Clear,0,2013-10-19 20:56:00
2:56 PM,84.9,30.0,14,29.99,10.0,Variable,3.5,-,N/A,,Clear,0,2013-10-19 21:56:00
3:56 PM,87.1,28.9,12,29.98,10.0,NNW,3.5,-,N/A,,Clear,330,2013-10-19 22:56:00
4:56 PM,84.0,37.9,19,29.98,10.0,WNW,8.1,-,N/A,,Clear,300,2013-10-19 23:56:00
5:56 PM,79.0,34.0,20,29.99,10.0,ENE,4.6,-,N/A,,Clear,70,2013-10-20 00:56:00
6:56 PM,70.0,36.0,29,30.01,10.0,WNW,3.5,-,N/A,,Clear,290,2013-10-20 01:56:00
7:56 PM,66.0,37.0,34,30.02,10.0,Calm,Calm,-,N/A,,Clear,0,2013-10-20 02:56:00
8:56 PM,61.0,36.0,39,30.03,10.0,Calm,Calm,-,N/A,,Clear,0,2013-10-20 03:56:00
9:56 PM,57.9,37.9,47,30.04,10.0,Calm,Calm,-,N/A,,Clear,0,2013-10-20 04:56:00
10:56 PM,55.9,37.9,51,30.04,10.0,Calm,Calm,-,N/A,,Clear,0,2013-10-20 05:56:00
11:56 PM,53.1,37.9,57,30.04,10.0,West,3.5,-,N/A,,Clear,280,2013-10-20 06:56:00